Regional Weather Roundup
Issued by NWS

Home | Current Version | Previous Version | Text Only | Print | Product List | Glossary Off
Versions: 1 2 3 4 5 6 7 8 9 10 11 12 13 14 15 16 17 18 19 20 21 22 23 24 25 26 27 28 29 30 31 32 33 34 35 36 37 38 39 40 41 42 43 44 45 46 47 48 49 50

000
ASUS45 KTFX 281510
RWRMT
MONTANA REGIONAL WEATHER ROUNDUP
NATIONAL WEATHER SERVICE GREAT FALLS MT
900 AM MDT THU MAY 28 2015

NOTE: "FAIR" INDICATES FEW OR NO CLOUDS BELOW 12000 FEET WITH NO
SIGNIFICANT WEATHER AND/OR OBSTRUCTIONS TO VISIBILITY.

MTZ001>007-043-281600-
WEST OF THE DIVIDE

CITY           SKY/WX    TMP DP  RH WIND       PRES   REMARKS
KALISPELL      PTSUNNY   54  50  86 CALM      30.11R
MISSOULA       CLOUDY    52  46  80 W3        30.14R
BUTTE          CLOUDY    46  42  86 CALM      30.15R
MULLAN PASS    CLOUDY    46  44  93 VRB3      30.18R
DEER LODGE       N/A     52  46  82 CALM      30.17R
EUREKA           N/A     52  52 100 CALM      30.14
HAMILTON         N/A     54  46  76 E3        30.13R
LIBBY            N/A     54  52  94 CALM      30.14R
RONAN            N/A     55  51  86 W1        30.15R
$$

MTZ008-052>055-281600-
SOUTHWEST MONTANA

CITY           SKY/WX    TMP DP  RH WIND       PRES   REMARKS
BOZEMAN        CLOUDY    52  47  83 W8        30.11S
DILLON         CLOUDY    50  43  77 SW7       30.12R
W YELLOWSTONE  CLOUDY    41  41 100 S5        30.15S
THREE FORKS      N/A     51  31  46 S7        30.09R
TWIN BRIDGES     N/A     51  43  74 E6        30.10R
$$

MTZ009-010-012-014-046-048-049-054-281600-
EAST SLOPES AND CENTRAL MONTANA

CITY           SKY/WX    TMP DP  RH WIND       PRES   REMARKS
CUT BANK       PTSUNNY   55  48  77 N23G33    30.09R
GREAT FALLS    CLOUDY    54  49  83 W8        30.06R
MALMSTROM AFB  PTSUNNY   57  48  72 W9        30.07R
HELENA         CLOUDY    54  49  83 N3        30.09R
CONRAD           N/A     54  53  96 W10       30.10R
$$

MTZ011-013-016-021-045-047-050-051-281600-
NORTH CENTRAL MONTANA

CITY           SKY/WX    TMP DP  RH WIND       PRES   REMARKS
HAVRE          CLOUDY    56  52  86 SW8       30.00F
LEWISTOWN      CLOUDY    57  47  69 CALM      30.05R
N BAR RANCH    FAIR      59  46  63 NW16      30.05S
CHINOOK          N/A     61  54  77 SW10      29.99S
FORT BENTON      N/A     57  48  72 W6        30.05R
$$

MTZ017>020-022>027-061-062-281600-
NORTHEAST MONTANA

CITY           SKY/WX    TMP DP  RH WIND       PRES   REMARKS
GLASGOW        PTSUNNY   64  53  67 NW9       29.92S
JORDAN           N/A     62  50  64 NW15      29.94F
SIDNEY         SUNNY     61  57  88 S7        29.89S
WOLF POINT     CLOUDY    59  54  83 SW8       29.90S HAZE
MALTA            N/A     60  50  69 SW8       29.93S
PLENTYWOOD       N/A     63  55  77 NW9       29.90R
POPLAR           N/A     63  55  77 N6        29.90S
$$

MTZ028>42-056>058-281600-
SOUTHCENTRAL AND SOUTHEAST MONTANA

CITY           SKY/WX    TMP DP  RH WIND       PRES   REMARKS
BAKER          SUNNY     63  54  72 NW12      29.94S
BILLINGS       CLOUDY    55  47  74 SW7       30.02S
LIVINGSTON     PTSUNNY   54  46  74 SW14      30.08R
MILES CITY     SUNNY     63  54  72 NW7       29.95R
BIG TIMBER       N/A     55  45  67 SW15      30.07S
LAUREL           N/A     55  48  77 S1        30.01S
ROUNDUP          N/A     54  48  80 S1        29.93S
$$

REGIONAL REPORTS...DAKOTAS

CITY           SKY/WX    TMP DP  RH WIND       PRES   REMARKS
WILLISTON      MOSUNNY   63  57  81 SW6       29.87F
MINOT          CLOUDY    63  57  81 W10       29.85R
DICKINSON      SUNNY     63  56  78 W8        29.89R
BEACH          FAIR      64  59  82 W8        29.93R
CROSBY         CLOUDY    61  61 100 N9        29.89S
WATFORD CITY   FAIR      59  59 100 SW7       29.86S
BISMARCK       CLOUDY    67  58  72 VRB3      29.88S
GRAND FORKS    MOSUNNY   64  59  83 SE10      29.88F
FARGO          CLOUDY    64  59  83 SE10      29.89F
BUFFALO SD       N/A     65  56  72 NW12      29.87S
RAPID CITY     MOSUNNY   64  55  72 N12       29.95R
$$

REGIONAL REPORTS...WYOMING/IDAHO/WASHINGTON

CITY           SKY/WX    TMP DP  RH WIND       PRES   REMARKS
GILLETTE       PTSUNNY   59  50  72 N12       30.01S
SHERIDAN       LGT RAIN  53  49  86 W8        30.03R
BUFFALO WY       N/A     56  47  71 N12       30.05R
CODY           CLOUDY    50  45  81 SW5       30.07S
YELLOWSTONE LA   N/A     33  32  96 CALM      30.19S
IDAHO FALLS    CLOUDY    52  47  83 N7        30.14R
SALMON         CLOUDY    52  46  82 CALM      30.13R
BOISE          SUNNY     60  45  57 CALM      30.10R
SPOKANE        PTSUNNY   61  49  64 S9        30.08R
$$

REGIONAL REPORTS...ALBERTA

CITY           SKY/WX    TMP DP  RH WIND       PRES   REMARKS
EDMONTON       SUNNY     45  32  61 N14G21    30.27R
LETHBRIDGE     LGT RAIN  57  50  77 NW18G26   30.12R
MEDICINE HAT   CLOUDY    57  52  82 N9        30.04R
$$

REGIONAL REPORTS...SASKATCHEWAN

CITY           SKY/WX    TMP DP  RH WIND       PRES   REMARKS
SWIFT CURRENT  CLOUDY    61  48  63 NW6       29.96R
REGINA         PTSUNNY   59  54  82 SW5       29.93R
SASKATOON      LGT RAIN  50  46  87 N17G25    30.02R
$$


USA.gov is the U.S. government's official web portal to all federal, state and local government web resources and services.